Rayong, Thailand

5:34 AM ICT on February 09, 2016 (GMT +0700)
U-Taphao International

Weather History for VTBU - February, 2013

Change the Weather History Date:

Friday, February 22, 2013

  Actual Average (WUND) Record (WUND)
Temperature  
Mean Temperature 84 °F -  
Max Temperature 93 °F - - (-1)
Min Temperature 75 °F - - (-1)
Cooling Degree Days 19    
Growing Degree Days 34 (Base 50)    
Moisture  
Dew Point 69 °F    
Average Humidity 70    
Maximum Humidity 94    
Minimum Humidity 30    
Precipitation  
Precipitation 0.00 in - - ()
Sea Level Pressure  
Sea Level Pressure 29.85 in    
Wind  
Wind Speed 2 mph ()    
Max Wind Speed 9 mph    
Max Gust Speed -    
Visibility 1.7 miles    
Events      
Averages and records for this station are not official NWS values.
T = Trace of Precipitation, MM = Missing Value Source: Averaged Metar Reports

Daily Weather History Graph

Daily Weather History Graph

Search for Another Location

Airport or City:

Trip Planner

Search our weather history database for the weather conditions in past years. The results will help you decide how hot, cold, wet, or windy it might be!

Date:

Astronomy

Feb. 22, 2013 Rise Set
Actual Time 6:33 AM ICT 6:22 PM ICT
Civil Twilight 6:12 AM ICT 6:43 PM ICT
Nautical Twilight 5:47 AM ICT 7:08 PM ICT
Astronomical Twilight 5:22 AM ICT 7:33 PM ICT
Moon 3:25 PM ICT (2/22) 3:34 AM ICT (2/22)
Length of Visible Light 12h 31m
Length of Day
11h 48m
Waxing Gibbous, 87% of the Moon is Illuminated
Feb 22
Waxing Gibbous
Feb 26
Full
Mar 5
Last Quarter
Mar 12
New
Mar 20
First Quarter

Hourly Weather History & Observations

Time (ICT) Temp. Heat Index Dew Point Humidity Pressure Visibility Wind Dir Wind Speed Gust Speed Precip Events Conditions
12:00 AM 77.0 °F - 73.4 °F 89% 29.86 in 1.9 mi Calm Calm - N/A   Mostly Cloudy
12:30 AM 77.0 °F - 73.4 °F 89% 29.86 in 1.9 mi Calm Calm - N/A   Mostly Cloudy
1:00 AM 77.0 °F - 73.4 °F 89% 29.86 in 1.9 mi Calm Calm - N/A   Mostly Cloudy
1:30 AM 75.2 °F - 73.4 °F 94% 29.83 in 1.9 mi Calm Calm - N/A   Mostly Cloudy
2:00 AM 75.2 °F - 71.6 °F 89% 29.83 in 1.9 mi Calm Calm - N/A   Mostly Cloudy
2:30 AM 75.2 °F - 71.6 °F 89% 29.83 in 1.9 mi Calm Calm - N/A   Mostly Cloudy
3:00 AM 75.2 °F - 71.6 °F 89% 29.83 in 1.9 mi Calm Calm - N/A   Mostly Cloudy
3:30 AM 75.2 °F - 71.6 °F 89% 29.80 in 1.9 mi Calm Calm - N/A   Mostly Cloudy
4:00 AM 75.2 °F - 71.6 °F 89% 29.80 in 1.9 mi Calm Calm - N/A   Mostly Cloudy
4:30 AM 75.2 °F - 71.6 °F 89% 29.80 in 1.9 mi Calm Calm - N/A   Mostly Cloudy
5:00 AM 75.2 °F - 71.6 °F 89% 29.80 in 1.9 mi Calm Calm - N/A   Mostly Cloudy
5:30 AM 75.2 °F - 71.6 °F 89% 29.83 in 1.9 mi Calm Calm - N/A   Mostly Cloudy
6:00 AM 75.2 °F - 71.6 °F 89% 29.83 in 1.9 mi Calm Calm - N/A   Mostly Cloudy
6:30 AM 75.2 °F - 71.6 °F 89% 29.83 in 1.2 mi Calm Calm - N/A   Mostly Cloudy
7:00 AM 75.2 °F - 71.6 °F 89% 29.86 in 1.2 mi Calm Calm - N/A   Mostly Cloudy
7:30 AM 75.2 °F - 71.6 °F 89% 29.86 in 1.2 mi Calm Calm - N/A   Mostly Cloudy
8:00 AM 77.0 °F - 73.4 °F 89% 29.89 in 1.2 mi North 4.6 mph - N/A   Mostly Cloudy
8:30 AM 78.8 °F - 75.2 °F 89% 29.89 in 1.2 mi North 4.6 mph - N/A   Mostly Cloudy
9:00 AM 80.6 °F 85.4 °F 73.4 °F 79% 29.92 in 1.2 mi NNW 6.9 mph - N/A   Mostly Cloudy
9:30 AM 80.6 °F 83.9 °F 69.8 °F 70% 29.92 in 1.2 mi NNW 6.9 mph - N/A   Mostly Cloudy
10:00 AM 84.2 °F 86.6 °F 66.2 °F 55% 29.92 in 1.2 mi North 6.9 mph - N/A   Haze
10:30 AM 86.0 °F 88.2 °F 66.2 °F 51% 29.92 in 1.2 mi North 5.8 mph - N/A   Haze
11:00 AM 87.8 °F 92.6 °F 69.8 °F 55% 29.92 in 1.2 mi NE 4.6 mph - N/A   Haze
11:30 AM 89.6 °F 89.5 °F 60.8 °F 38% 29.89 in 1.2 mi NE 4.6 mph - N/A   Haze
12:00 PM 91.4 °F 91.4 °F 60.8 °F 36% 29.89 in 1.2 mi NNE 6.9 mph - N/A   Haze
12:30 PM 89.6 °F 89.5 °F 60.8 °F 38% 29.86 in 1.2 mi NNE 6.9 mph - N/A   Haze
1:00 PM 89.6 °F 88.9 °F 59.0 °F 36% 29.86 in 1.9 mi NNE 6.9 mph - N/A   Haze
1:30 PM 91.4 °F 89.9 °F 57.2 °F 31% 29.83 in 1.9 mi NNE 9.2 mph - N/A   Haze
2:00 PM 93.2 °F 91.9 °F 57.2 °F 30% 29.83 in 1.9 mi NE 6.9 mph - N/A   Haze
2:30 PM 93.2 °F 91.9 °F 57.2 °F 30% 29.80 in 1.9 mi East 6.9 mph - N/A   Haze
3:00 PM 87.8 °F 92.6 °F 69.8 °F 55% 29.80 in 1.9 mi SE 9.2 mph - N/A   Haze
3:30 PM 86.0 °F 90.4 °F 69.8 °F 58% 29.80 in 1.9 mi SSE 9.2 mph - N/A   Haze
4:00 PM 86.0 °F 89.4 °F 68.0 °F 55% 29.80 in 1.9 mi South 9.2 mph - N/A   Haze
4:30 PM 84.2 °F 88.4 °F 69.8 °F 62% 29.80 in 1.9 mi SSW 9.2 mph - N/A   Haze
5:00 PM 84.2 °F 88.4 °F 69.8 °F 62% 29.80 in 1.9 mi South 5.8 mph - N/A   Haze
5:30 PM 84.2 °F 87.3 °F 68.0 °F 58% 29.83 in 1.9 mi South 3.5 mph - N/A   Haze
6:00 PM 84.2 °F 87.3 °F 68.0 °F 58% 29.83 in 1.9 mi SSW 5.8 mph - N/A   Haze
6:30 PM 82.4 °F 85.4 °F 68.0 °F 62% 29.83 in 1.9 mi SSW 3.5 mph - N/A   Haze
7:00 PM 82.4 °F 86.3 °F 69.8 °F 66% 29.83 in 1.9 mi West 3.5 mph - N/A   Mostly Cloudy
7:30 PM 80.6 °F 83.2 °F 68.0 °F 65% 29.86 in 1.9 mi West 2.3 mph - N/A   Mostly Cloudy
8:00 PM 80.6 °F 83.2 °F 68.0 °F 65% 29.86 in 1.9 mi Calm Calm - N/A   Mostly Cloudy
8:30 PM 80.6 °F 83.2 °F 68.0 °F 65% 29.86 in 1.9 mi Calm Calm - N/A   Mostly Cloudy
9:00 PM 78.8 °F - 69.8 °F 74% 29.86 in 1.9 mi Calm Calm - N/A   Mostly Cloudy
9:30 PM 78.8 °F - 69.8 °F 74% 29.89 in 1.9 mi North 3.5 mph - N/A   Mostly Cloudy
10:00 PM 78.8 °F - 69.8 °F 74% 29.89 in 1.9 mi North 5.8 mph - N/A   Mostly Cloudy
10:30 PM 77.0 °F - 69.8 °F 78% 29.89 in 1.9 mi NNW 3.5 mph - N/A   Mostly Cloudy
11:00 PM 77.0 °F - 69.8 °F 78% 29.89 in 1.9 mi NNW 3.5 mph - N/A   Mostly Cloudy
11:30 PM 77.0 °F - 69.8 °F 78% 29.89 in 1.9 mi NNW 3.5 mph - N/A   Mostly Cloudy